Location: Łódź
(51.7951°N, 19.4477°E)
Time: 12:20:46
(UTC+01:00)

ISS - Pass Details

Date: 01 February 2019
Orbit: 403 x 411 km, 51.6° (Epoch: 22 February)

Event Time Altitude Azimuth Distance (km) Brightness Sun altitude
Rises 17:18:53 0° 262° (W) 2,331 2.2 -7.8°
Reaches altitude 10° 17:20:58 10° 262° (W) 1,473 0.7 -8.1°
Maximum altitude 17:24:16 85° 175° (S) 416 -3.8 -8.6°
Enters shadow 17:27:15 12° 85° (E) 1,339 -1.8 -9.0°
